Time,TemperatureF,DewpointF,PressureIn,WindDirection,WindDirectionDegrees,WindSpeedMPH,WindSpeedGustMPH,Humidity,HourlyPrecipIn,Conditions,Clouds,dailyrainin,SoftwareType,DateUTC
2013-01-13 00:02:00,29.0,13.0,-100.00,NNW,331,4.0,7.0,51,-99.99,,,-99.99,,2013-01-13 08:02:00,
2013-01-13 00:11:00,29.0,13.0,-100.00,NNW,327,4.0,6.0,51,-99.99,,,-99.99,,2013-01-13 08:11:00,
2013-01-13 00:22:00,29.0,13.0,-100.00,NNW,329,4.0,6.0,51,-99.99,,,-99.99,,2013-01-13 08:22:00,
2013-01-13 00:32:00,29.0,13.0,-100.00,NNW,328,4.0,6.0,50,-99.99,,,-99.99,,2013-01-13 08:32:00,
2013-01-13 00:42:00,29.0,12.0,-100.00,NNW,334,4.0,6.0,49,-99.99,,,-99.99,,2013-01-13 08:42:00,
2013-01-13 00:52:00,28.0,12.0,-100.00,NW,322,4.0,6.0,50,-99.99,,,-99.99,,2013-01-13 08:52:00,
2013-01-13 01:02:00,28.0,12.0,-100.00,NW,322,4.0,6.0,50,-99.99,,,-99.99,,2013-01-13 09:02:00,
2013-01-13 01:11:00,28.0,12.0,-100.00,NW,319,4.0,6.0,50,-99.99,,,-99.99,,2013-01-13 09:11:00,
2013-01-13 01:22:00,28.0,11.0,-100.00,NW,322,4.0,7.0,49,-99.99,,,-99.99,,2013-01-13 09:22:00,
2013-01-13 01:32:00,28.0,11.0,-100.00,NNW,327,5.0,7.0,49,-99.99,,,-99.99,,2013-01-13 09:32:00,
2013-01-13 01:42:00,28.0,11.0,-100.00,NNW,335,6.0,7.0,49,-99.99,,,-99.99,,2013-01-13 09:42:00,
2013-01-13 01:52:00,28.0,12.0,-100.00,NW,325,5.0,7.0,51,-99.99,,,-99.99,,2013-01-13 09:52:00,
2013-01-13 02:02:00,27.0,12.0,-100.00,NW,316,4.0,7.0,52,-99.99,,,-99.99,,2013-01-13 10:02:00,
2013-01-13 02:11:00,28.0,13.0,-100.00,NW,321,4.0,8.0,53,-99.99,,,-99.99,,2013-01-13 10:11:00,
2013-01-13 02:22:00,28.0,14.0,-100.00,NNW,330,5.0,7.0,54,-99.99,,,-99.99,,2013-01-13 10:22:00,
2013-01-13 02:32:00,27.0,13.0,-100.00,NW,326,5.0,8.0,56,-99.99,,,-99.99,,2013-01-13 10:32:00,
2013-01-13 02:42:00,27.0,14.0,-100.00,NW,322,5.0,7.0,58,-99.99,,,-99.99,,2013-01-13 10:42:00,
2013-01-13 02:52:00,27.0,15.0,-100.00,NW,324,5.0,7.0,59,-99.99,,,-99.99,,2013-01-13 10:52:00,
2013-01-13 03:02:00,27.0,15.0,-100.00,NW,320,4.0,7.0,59,-99.99,,,-99.99,,2013-01-13 11:02:00,
2013-01-13 03:12:00,27.0,15.0,-100.00,NW,318,4.0,7.0,59,-99.99,,,-99.99,,2013-01-13 11:12:00,
2013-01-13 03:22:00,27.0,14.0,-100.00,NW,323,5.0,7.0,58,-99.99,,,-99.99,,2013-01-13 11:22:00,
2013-01-13 03:32:00,27.0,14.0,-100.00,NNW,331,5.0,8.0,58,-99.99,,,-99.99,,2013-01-13 11:32:00,
2013-01-13 03:42:00,26.0,14.0,-100.00,NNW,330,5.0,8.0,59,-99.99,,,-99.99,,2013-01-13 11:42:00,
2013-01-13 03:52:00,26.0,14.0,-100.00,NNW,333,6.0,9.0,60,-99.99,,,-99.99,,2013-01-13 11:52:00,
2013-01-13 04:02:00,26.0,14.0,-100.00,NNW,331,6.0,9.0,61,-99.99,,,-99.99,,2013-01-13 12:02:00,
2013-01-13 04:12:00,25.0,14.0,-100.00,NNW,332,6.0,10.0,62,-99.99,,,-99.99,,2013-01-13 12:12:00,
2013-01-13 04:22:00,25.0,15.0,-100.00,NNW,328,6.0,10.0,64,-99.99,,,-99.99,,2013-01-13 12:22:00,
2013-01-13 04:32:00,25.0,14.0,-100.00,NW,320,5.0,8.0,63,-99.99,,,-99.99,,2013-01-13 12:32:00,
2013-01-13 04:42:00,25.0,14.0,-100.00,NW,320,6.0,8.0,63,-99.99,,,-99.99,,2013-01-13 12:42:00,
2013-01-13 04:52:00,25.0,14.0,-100.00,NNW,327,5.0,8.0,63,-99.99,,,-99.99,,2013-01-13 12:52:00,
2013-01-13 05:02:00,25.0,14.0,-100.00,NW,322,5.0,7.0,63,-99.99,,,-99.99,,2013-01-13 13:02:00,
2013-01-13 05:12:00,25.0,15.0,-100.00,NW,319,5.0,7.0,64,-99.99,,,-99.99,,2013-01-13 13:12:00,
2013-01-13 05:22:00,26.0,15.0,-100.00,NNW,336,4.0,7.0,62,-99.99,,,-99.99,,2013-01-13 13:22:00,
2013-01-13 05:32:00,26.0,15.0,-100.00,NNW,337,5.0,8.0,63,-99.99,,,-99.99,,2013-01-13 13:32:00,
2013-01-13 05:42:00,26.0,15.0,-100.00,NNW,337,5.0,8.0,63,-99.99,,,-99.99,,2013-01-13 13:42:00,
2013-01-13 05:53:00,25.0,15.0,-100.00,NNW,331,6.0,8.0,64,-99.99,,,-99.99,,2013-01-13 13:53:00,
2013-01-13 06:02:00,24.0,15.0,-100.00,NW,324,6.0,10.0,67,-99.99,,,-99.99,,2013-01-13 14:02:00,
2013-01-13 06:12:00,24.0,14.0,-100.00,NNW,331,6.0,9.0,66,-99.99,,,-99.99,,2013-01-13 14:12:00,
2013-01-13 06:22:00,25.0,15.0,-100.00,NNW,327,6.0,8.0,64,-99.99,,,-99.99,,2013-01-13 14:22:00,
2013-01-13 06:32:00,25.0,13.0,-100.00,NNW,331,6.0,7.0,61,-99.99,,,-99.99,,2013-01-13 14:32:00,
2013-01-13 06:42:00,26.0,12.0,-100.00,NNW,336,6.0,8.0,56,-99.99,,,-99.99,,2013-01-13 14:42:00,
2013-01-13 06:52:00,26.0,11.0,-100.00,NNW,335,5.0,7.0,53,-99.99,,,-99.99,,2013-01-13 14:52:00,
2013-01-13 07:02:00,27.0,11.0,-100.00,NNW,345,4.0,7.0,51,-99.99,,,-99.99,,2013-01-13 15:02:00,
2013-01-13 07:12:00,26.0,12.0,-100.00,NNW,343,3.0,5.0,54,-99.99,,,-99.99,,2013-01-13 15:12:00,
2013-01-13 07:22:00,25.0,12.0,-100.00,NW,323,3.0,6.0,56,-99.99,,,-99.99,,2013-01-13 15:22:00,
2013-01-13 07:33:00,26.0,12.0,-100.00,NNW,329,5.0,8.0,54,-99.99,,,-99.99,,2013-01-13 15:33:00,
2013-01-13 07:42:00,27.0,11.0,-100.00,NNW,328,4.0,6.0,51,-99.99,,,-99.99,,2013-01-13 15:42:00,
2013-01-13 07:52:00,27.0,11.0,-100.00,NNW,336,3.0,7.0,50,-99.99,,,-99.99,,2013-01-13 15:52:00,
2013-01-13 08:03:00,27.0,11.0,-100.00,NNW,331,3.0,5.0,51,-99.99,,,-99.99,,2013-01-13 16:03:00,
2013-01-13 08:12:00,27.0,12.0,-100.00,NNW,336,4.0,6.0,52,-99.99,,,-99.99,,2013-01-13 16:12:00,
2013-01-13 08:22:00,27.0,11.0,-100.00,NNW,343,3.0,6.0,51,-99.99,,,-99.99,,2013-01-13 16:22:00,
2013-01-13 08:33:00,28.0,12.0,-100.00,NNE,17,4.0,6.0,50,-99.99,,,-99.99,,2013-01-13 16:33:00,
2013-01-13 08:42:00,29.0,12.0,-100.00,NNE,20,3.0,6.0,49,-99.99,,,-99.99,,2013-01-13 16:42:00,
2013-01-13 08:52:00,29.0,12.0,-100.00,NE,34,3.0,4.0,48,-99.99,,,-99.99,,2013-01-13 16:52:00,
2013-01-13 09:02:00,31.0,12.0,-100.00,East,81,5.0,9.0,45,-99.99,,,-99.99,,2013-01-13 17:02:00,
2013-01-13 09:12:00,32.0,10.0,-100.00,East,81,7.0,9.0,40,-99.99,,,-99.99,,2013-01-13 17:12:00,
2013-01-13 09:22:00,32.0,9.0,-100.00,East,81,7.0,9.0,37,-99.99,,,-99.99,,2013-01-13 17:22:00,
2013-01-13 09:32:00,33.0,8.0,-100.00,East,89,7.0,11.0,35,-99.99,,,-99.99,,2013-01-13 17:32:00,
2013-01-13 09:42:00,33.0,7.0,-100.00,East,86,7.0,15.0,33,-99.99,,,-99.99,,2013-01-13 17:42:00,
2013-01-13 09:52:00,34.0,6.0,-100.00,East,81,9.0,13.0,30,-99.99,,,-99.99,,2013-01-13 17:52:00,
2013-01-13 10:02:00,34.0,7.0,-100.00,East,87,10.0,15.0,31,-99.99,,,-99.99,,2013-01-13 18:02:00,
2013-01-13 10:12:00,34.0,7.0,-100.00,ENE,71,7.0,13.0,31,-99.99,,,-99.99,,2013-01-13 18:12:00,
2013-01-13 10:22:00,35.0,7.0,-100.00,NE,55,8.0,12.0,31,-99.99,,,-99.99,,2013-01-13 18:22:00,
2013-01-13 10:32:00,34.0,6.0,-100.00,ENE,59,8.0,13.0,30,-99.99,,,-99.99,,2013-01-13 18:32:00,
2013-01-13 10:42:00,35.0,7.0,-100.00,ENE,67,9.0,13.0,31,-99.99,,,-99.99,,2013-01-13 18:42:00,
2013-01-13 10:53:00,35.0,7.0,-100.00,East,81,8.0,12.0,30,-99.99,,,-99.99,,2013-01-13 18:53:00,
2013-01-13 11:02:00,35.0,7.0,-100.00,East,97,10.0,14.0,30,-99.99,,,-99.99,,2013-01-13 19:02:00,
2013-01-13 11:12:00,35.0,7.0,-100.00,East,80,7.0,12.0,31,-99.99,,,-99.99,,2013-01-13 19:12:00,
2013-01-13 11:22:00,35.0,7.0,-100.00,ENE,75,7.0,14.0,30,-99.99,,,-99.99,,2013-01-13 19:22:00,
2013-01-13 11:32:00,35.0,6.0,-100.00,East,84,7.0,14.0,29,-99.99,,,-99.99,,2013-01-13 19:32:00,
2013-01-13 11:42:00,35.0,6.0,-100.00,East,80,7.0,13.0,29,-99.99,,,-99.99,,2013-01-13 19:42:00,
2013-01-13 11:52:00,36.0,8.0,-100.00,ENE,66,6.0,12.0,31,-99.99,,,-99.99,,2013-01-13 19:52:00,
2013-01-13 12:02:00,36.0,8.0,-100.00,East,92,7.0,12.0,30,-99.99,,,-99.99,,2013-01-13 20:02:00,
2013-01-13 12:12:00,36.0,8.0,-100.00,NE,52,5.0,10.0,30,-99.99,,,-99.99,,2013-01-13 20:12:00,
2013-01-13 12:22:00,37.0,8.0,-100.00,ENE,58,6.0,12.0,30,-99.99,,,-99.99,,2013-01-13 20:22:00,
2013-01-13 12:32:00,37.0,8.0,-100.00,ENE,59,5.0,11.0,30,-99.99,,,-99.99,,2013-01-13 20:32:00,
2013-01-13 12:43:00,37.0,8.0,-100.00,East,100,6.0,11.0,30,-99.99,,,-99.99,,2013-01-13 20:43:00,
2013-01-13 12:52:00,38.0,9.0,-100.00,ENE,76,4.0,8.0,30,-99.99,,,-99.99,,2013-01-13 20:52:00,
2013-01-13 13:02:00,38.0,9.0,-100.00,ENE,70,5.0,9.0,29,-99.99,,,-99.99,,2013-01-13 21:02:00,
2013-01-13 13:12:00,39.0,9.0,-100.00,ENE,71,4.0,11.0,29,-99.99,,,-99.99,,2013-01-13 21:12:00,
2013-01-13 13:22:00,38.0,8.0,-100.00,ESE,118,8.0,11.0,28,-99.99,,,-99.99,,2013-01-13 21:22:00,
2013-01-13 13:32:00,39.0,9.0,-100.00,ENE,73,5.0,9.0,29,-99.99,,,-99.99,,2013-01-13 21:32:00,
2013-01-13 13:42:00,38.0,9.0,-100.00,NE,46,4.0,9.0,29,-99.99,,,-99.99,,2013-01-13 21:42:00,
2013-01-13 13:52:00,40.0,10.0,-100.00,ESE,102,4.0,10.0,29,-99.99,,,-99.99,,2013-01-13 21:52:00,
2013-01-13 14:02:00,41.0,12.0,-100.00,SSE,162,3.0,8.0,30,-99.99,,,-99.99,,2013-01-13 22:02:00,
2013-01-13 14:12:00,41.0,13.0,-100.00,SSW,199,7.0,15.0,32,-99.99,,,-99.99,,2013-01-13 22:12:00,
2013-01-13 14:22:00,41.0,13.0,-100.00,South,184,6.0,14.0,31,-99.99,,,-99.99,,2013-01-13 22:22:00,
2013-01-13 14:33:00,41.0,11.0,-100.00,East,100,6.0,12.0,29,-99.99,,,-99.99,,2013-01-13 22:33:00,
2013-01-13 14:42:00,41.0,11.0,-100.00,East,100,6.0,12.0,29,-99.99,,,-99.99,,2013-01-13 22:42:00,
2013-01-13 14:52:00,40.0,10.0,-100.00,ESE,104,7.0,10.0,28,-99.99,,,-99.99,,2013-01-13 22:52:00,
2013-01-13 15:02:00,40.0,10.0,-100.00,East,89,6.0,10.0,29,-99.99,,,-99.99,,2013-01-13 23:02:00,
2013-01-13 15:12:00,40.0,10.0,-100.00,NE,47,4.0,9.0,29,-99.99,,,-99.99,,2013-01-13 23:12:00,
2013-01-13 15:22:00,39.0,9.0,-100.00,NE,38,6.0,10.0,28,-99.99,,,-99.99,,2013-01-13 23:22:00,
2013-01-13 15:32:00,39.0,8.0,-100.00,NE,41,6.0,10.0,27,-99.99,,,-99.99,,2013-01-13 23:32:00,
2013-01-13 15:42:00,39.0,8.0,-100.00,NNE,24,5.0,8.0,27,-99.99,,,-99.99,,2013-01-13 23:42:00,
2013-01-13 15:52:00,38.0,7.0,-100.00,NE,39,6.0,10.0,27,-99.99,,,-99.99,,2013-01-13 23:52:00,
2013-01-13 16:02:00,38.0,7.0,-100.00,NE,34,4.0,8.0,27,-99.99,,,-99.99,,2013-01-14 00:02:00,
2013-01-13 16:12:00,39.0,8.0,-100.00,NNE,22,3.0,6.0,27,-99.99,,,-99.99,,2013-01-14 00:12:00,
2013-01-13 16:22:00,39.0,7.0,-100.00,East,81,2.0,5.0,26,-99.99,,,-99.99,,2013-01-14 00:22:00,
2013-01-13 16:32:00,38.0,7.0,-100.00,East,86,4.0,7.0,27,-99.99,,,-99.99,,2013-01-14 00:32:00,
2013-01-13 16:42:00,38.0,7.0,-100.00,NNE,32,2.0,6.0,27,-99.99,,,-99.99,,2013-01-14 00:42:00,
2013-01-13 16:52:00,37.0,7.0,-100.00,North,358,3.0,6.0,28,-99.99,,,-99.99,,2013-01-14 00:52:00,
2013-01-13 17:02:00,37.0,8.0,-100.00,NW,325,4.0,6.0,29,-99.99,,,-99.99,,2013-01-14 01:02:00,
2013-01-13 17:12:00,36.0,8.0,-100.00,North,351,3.0,6.0,30,-99.99,,,-99.99,,2013-01-14 01:12:00,
2013-01-13 17:22:00,35.0,9.0,-100.00,NE,41,1.0,3.0,33,-99.99,,,-99.99,,2013-01-14 01:22:00,
2013-01-13 17:32:00,35.0,14.0,-100.00,NNW,347,2.0,6.0,42,-99.99,,,-99.99,,2013-01-14 01:32:00,
2013-01-13 17:42:00,35.0,14.0,-100.00,NW,321,4.0,7.0,41,-99.99,,,-99.99,,2013-01-14 01:42:00,
2013-01-13 17:52:00,35.0,21.0,-100.00,West,276,5.0,11.0,57,-99.99,,,-99.99,,2013-01-14 01:52:00,
2013-01-13 18:02:00,35.0,24.0,-100.00,West,260,8.0,13.0,64,-99.99,,,-99.99,,2013-01-14 02:02:00,
2013-01-13 18:12:00,34.0,23.0,-100.00,West,265,9.0,13.0,65,-99.99,,,-99.99,,2013-01-14 02:12:00,
2013-01-13 18:22:00,34.0,23.0,-100.00,West,268,9.0,13.0,65,-99.99,,,-99.99,,2013-01-14 02:22:00,
2013-01-13 18:32:00,34.0,24.0,-100.00,West,270,9.0,14.0,66,-99.99,,,-99.99,,2013-01-14 02:32:00,
2013-01-13 18:42:00,34.0,24.0,-100.00,West,273,9.0,13.0,67,-99.99,,,-99.99,,2013-01-14 02:42:00,
2013-01-13 18:53:00,33.0,24.0,-100.00,West,275,10.0,14.0,68,-99.99,,,-99.99,,2013-01-14 02:53:00,
2013-01-13 19:02:00,33.0,24.0,-100.00,West,272,9.0,13.0,69,-99.99,,,-99.99,,2013-01-14 03:02:00,
2013-01-13 19:12:00,33.0,24.0,-100.00,West,266,7.0,11.0,70,-99.99,,,-99.99,,2013-01-14 03:12:00,
2013-01-13 19:22:00,32.0,24.0,-100.00,West,261,7.0,8.0,71,-99.99,,,-99.99,,2013-01-14 03:22:00,
2013-01-13 19:32:00,33.0,25.0,-100.00,West,272,8.0,11.0,71,-99.99,,,-99.99,,2013-01-14 03:32:00,
2013-01-13 19:42:00,33.0,24.0,-100.00,West,272,10.0,14.0,70,-99.99,,,-99.99,,2013-01-14 03:42:00,
2013-01-13 19:52:00,33.0,24.0,-100.00,West,267,7.0,12.0,70,-99.99,,,-99.99,,2013-01-14 03:52:00,
2013-01-13 20:02:00,33.0,24.0,-100.00,West,266,7.0,10.0,70,-99.99,,,-99.99,,2013-01-14 04:02:00,
2013-01-13 20:12:00,33.0,24.0,-100.00,West,267,7.0,10.0,70,-99.99,,,-99.99,,2013-01-14 04:12:00,
2013-01-13 20:22:00,33.0,24.0,-100.00,West,274,7.0,10.0,70,-99.99,,,-99.99,,2013-01-14 04:22:00,
2013-01-13 20:32:00,32.0,23.0,-100.00,NNW,331,5.0,8.0,70,-99.99,,,-99.99,,2013-01-14 04:32:00,
2013-01-13 20:42:00,32.0,22.0,-100.00,WNW,298,3.0,4.0,66,-99.99,,,-99.99,,2013-01-14 04:42:00,
2013-01-13 20:52:00,32.0,18.0,-100.00,WNW,298,4.0,6.0,56,-99.99,,,-99.99,,2013-01-14 04:52:00,
2013-01-13 21:03:00,32.0,13.0,-100.00,NW,322,4.0,6.0,45,-99.99,,,-99.99,,2013-01-14 05:03:00,
2013-01-13 21:12:00,31.0,13.0,-100.00,ENE,60,3.0,4.0,47,-99.99,,,-99.99,,2013-01-14 05:12:00,
2013-01-13 21:22:00,31.0,11.0,-100.00,North,1,4.0,6.0,42,-99.99,,,-99.99,,2013-01-14 05:22:00,
2013-01-13 21:32:00,31.0,11.0,-100.00,North,351,5.0,6.0,42,-99.99,,,-99.99,,2013-01-14 05:32:00,
2013-01-13 21:42:00,30.0,11.0,-100.00,NNW,342,5.0,6.0,44,-99.99,,,-99.99,,2013-01-14 05:42:00,
2013-01-13 21:52:00,30.0,12.0,-100.00,NNW,339,4.0,6.0,46,-99.99,,,-99.99,,2013-01-14 05:52:00,
2013-01-13 22:02:00,30.0,12.0,-100.00,NNW,338,4.0,6.0,46,-99.99,,,-99.99,,2013-01-14 06:02:00,
2013-01-13 22:11:00,30.0,13.0,-100.00,NW,315,4.0,5.0,48,-99.99,,,-99.99,,2013-01-14 06:11:00,
2013-01-13 22:22:00,29.0,13.0,-100.00,NNW,327,4.0,6.0,50,-99.99,,,-99.99,,2013-01-14 06:22:00,
2013-01-13 22:32:00,29.0,13.0,-100.00,NNW,337,5.0,7.0,50,-99.99,,,-99.99,,2013-01-14 06:32:00,
2013-01-13 22:42:00,29.0,13.0,-100.00,NNW,340,3.0,7.0,51,-99.99,,,-99.99,,2013-01-14 06:42:00,
2013-01-13 22:52:00,29.0,13.0,-100.00,North,354,5.0,8.0,50,-99.99,,,-99.99,,2013-01-14 06:52:00,
2013-01-13 23:02:00,29.0,13.0,-100.00,NNE,12,6.0,8.0,50,-99.99,,,-99.99,,2013-01-14 07:02:00,
2013-01-13 23:12:00,30.0,14.0,-100.00,NNE,25,5.0,9.0,50,-99.99,,,-99.99,,2013-01-14 07:12:00,
2013-01-13 23:22:00,29.0,13.0,-100.00,NE,42,3.0,6.0,51,-99.99,,,-99.99,,2013-01-14 07:22:00,
2013-01-13 23:32:00,30.0,14.0,-100.00,NNE,31,5.0,7.0,50,-99.99,,,-99.99,,2013-01-14 07:32:00,
2013-01-13 23:42:00,30.0,14.0,-100.00,NNE,31,5.0,7.0,50,-99.99,,,-99.99,,2013-01-14 07:42:00,
2013-01-13 23:52:00,29.0,13.0,-100.00,NE,41,7.0,10.0,51,-99.99,,,-99.99,,2013-01-14 07:52:00,